map of TRN home
TRN - Airport
Location
City:  Turin, Piedmont, Italy
Near (Alt.):Torino
Name:Caselle
ICAO:LIMF
IATA:TRN

Details
Type:Airport (Aerodrome, Airfield)
Use:Public/Civil
Latitude:4512'03"N (45.200761)
Longitude:738'59"E (7.649631)
Datum:WGS 1984
Elevation:989 ft (301 m)
Variation:2.44E (WMM2015v2 magnetic declination)
0.15 annual change
Runways:1
Longest:10827 × 197 ft (3300 × 60 m), paved

Time
Time Zone:UTC+1 (DST+2)
Local Time:

Weather
METAR:LIMF 041350Z 09003KT 050V150 CAVOK 10/M05 Q1024
TAF:LIMF 041100Z 0412/0512 VRB05KT CAVOK

Related Locations
Nearby:
Farthest:CHT: 12214 mi / 19656 km
Waitangi [Tuuta], CIT, NZ

Find:

   beyond  
but within

Other Information
Maps:
NOTAMs:
Links:
Sources:

  
  • flag of Italy
  • flag of Piedmont
  

Sectional Chart

Flight Planning
at skyvector.com

Satellite Image

Google Maps Satellite view

 

Copyright © 2004-2019 Karl L. Swartz. All rights reserved.
The Great Circle Mapper name and logo are trademarks of the Great Circle Mapper.
All other trademarks mentioned herein belong to their respective owners.
Please see credits for attibutions and further copyright information.

  Follow gcmap on Facebook Follow gcmap on Twitter GCmap on LinkedIn

hCard Microformat

Geo Microformat